Lapse_Rate
6.3 6.3 6.4 6.4 6.6 6.8 7.0 7.2 7.2 7.3 7.4 7.5 7.5 7.5 7.5 7.2 6.9 6.6 6.5 6.5 6.2 6.1
6.3 6.4 6.4 6.5 6.6 6.7 6.9 7.1 7.2 7.3 7.4 7.5 7.5 7.5 7.4 7.1 6.9 6.6 6.4 6.3 6.1 6.1
6.3 6.4 6.4 6.6 6.7 6.8 6.9 7.0 7.1 7.2 7.4 7.4 7.5 7.5 7.4 7.1 6.8 6.4 6.1 6.2 6.1 6.0
6.4 6.5 6.6 6.7 6.8 6.9 7.0 7.1 7.2 7.3 7.3 7.4 7.4 7.3 7.2 7.0 6.6 6.2 6.2 6.1 6.1 6.2
6.7 6.7 6.8 6.9 7.0 7.1 7.1 7.1 7.2 7.2 7.2 7.1 7.1 7.0 7.0 6.7 6.5 6.2 6.1 6.2 6.3 6.3
6.7 6.7 6.8 6.8 7.0 7.0 6.9 6.9 6.9 7.0 6.8 6.7 6.8 6.6 6.4 6.3 6.4 6.2 6.0 6.2 6.2 6.3
6.5 6.6 6.5 6.6 6.6 6.4 6.4 6.5 6.6 6.6 6.5 6.6 6.5 6.5 6.2 6.0 6.1 5.8 5.8 5.9 6.0 6.2
6.3 6.4 6.4 6.4 6.3 6.3 6.3 6.4 6.4 6.4 6.3 6.4 6.1 5.7 5.4 5.4 5.2 5.2 5.1 5.7 5.8 5.9
6.3 6.4 6.3 6.3 6.3 6.3 6.3 6.3 6.3 6.2 5.6 5.3 5.1 4.8 5.1 5.3 4.9 5.0 5.1 5.4 5.6 6.1
6.4 6.3 6.3 6.2 6.3 6.4 6.2 6.1 6.1 5.7 5.2 5.1 5.4 4.8 5.0 5.1 5.0 4.9 5.0 5.1 5.1 6.0
6.3 6.2 6.2 6.3 6.4 6.3 6.3 6.1 5.8 5.7 5.5 5.4 5.5 5.6 5.4 5.6 5.5 5.0 5.2 5.2 5.7 6.0
6.1 6.1 6.2 6.3 6.4 6.2 6.2 6.0 5.8 5.7 5.5 5.6 5.6 5.5 5.2 5.6 5.6 5.7 5.3 5.2 6.0 6.2
6.0 6.0 6.1 6.2 6.3 6.2 6.1 6.0 5.9 5.8 5.7 5.6 5.5 5.5 5.6 5.7 5.8 5.8 5.4 5.6 6.1 5.9
5.9 5.9 6.0 6.0 6.2 6.1 6.2 6.0 5.9 5.6 5.4 5.4 5.6 5.7 5.8 5.8 5.9 5.9 5.8 5.8 5.7 5.7
Wind_Speed
4 3 3 1 0 2 1 2 4 6 7 8 8 8 8 3 4 4 4 7 8 7
3 4 2 3 3 3 3 4 6 7 5 7 8 8 6 4 6 4 5 5 6 6
3 3 3 3 4 6 4 6 5 6 5 5 5 6 6 5 5 5 6 5 6 6
3 4 4 4 5 4 4 5 5 5 5 6 7 6 6 7 7 7 7 7 7 8
4 4 5 5 5 4 5 7 6 7 7 7 6 6 6 8 6 7 9 9 8 9
5 5 4 5 5 4 4 6 7 7 6 7 7 6 7 6 8 8 9 9 7 8
4 3 3 4 5 4 4 5 5 5 5 6 6 7 6 8 8 7 6 4 4 5
2 3 4 5 4 3 4 4 5 5 5 6 6 4 8 6 5 4 2 3 4 6
3 4 4 5 4 3 3 4 5 5 6 6 5 12 10 6 3 3 3 3 4 3
2 3 3 3 4 4 3 3 4 4 5 6 6 13 8 6 3 2 3 4 3 4
2 4 3 3 3 4 3 3 3 4 5 5 5 11 9 6 3 3 4 5 4 4
2 1 2 3 3 3 3 3 3 2 5 6 5 11 6 4 3 3 5 5 4 5
1 1 2 3 3 2 3 4 2 2 2 7 4 11 9 4 0 3 3 5 6 12
0 1 1 2 2 2 2 4 4 3 1 2 5 4 5 2 2 3 4 4 4 4
Wind_Direction
101 99 136 161 344 315 284 314 329 356 342 337 339 330 318 307 308 274 267 296 300 297
74 91 93 54 35 328 326 8 6 352 350 358 354 338 320 313 296 285 277 265 280 291
71 63 59 71 26 343 17 19 356 351 357 348 333 326 327 313 291 281 280 270 255 272
47 41 27 55 20 333 32 10 353 342 341 333 328 320 311 299 294 289 285 279 269 271
67 44 40 42 4 350 7 342 339 341 334 321 311 303 306 302 303 302 293 286 279 272
58 42 25 35 356 13 19 341 333 332 322 315 311 315 307 303 299 292 284 282 269 270
73 39 7 24 353 6 11 330 343 332 313 320 316 310 305 302 299 290 287 346 34 36
54 9 39 15 350 333 359 346 339 324 330 326 322 315 314 315 314 322 356 41 50 47
56 43 21 354 330 332 25 354 341 340 333 334 328 318 336 359 350 2 30 43 50 46
58 32 356 350 330 338 4 348 344 341 338 334 325 339 346 2 3 3 42 46 48 65
50 12 342 350 343 334 350 352 346 338 337 332 339 356 10 24 17 38 39 36 42 57
153 25 334 328 325 325 337 334 333 357 355 345 353 360 5 14 22 49 54 40 50 60
185 44 334 310 314 319 323 302 296 330 29 4 4 5 12 15 95 75 61 48 40 67
220 272 270 296 310 322 329 304 300 264 145 51 18 347 0 116 98 90 84 62 47 50